Track EUTE HOT BIRD 13B (HB 8) now! EUTE HOT BIRD 13B (HB 8) is classified as:
1 29270U 06032A 24251.92618703 .00000162 00000-0 00000-0 0 9990 2 29270 0.0424 307.7290 0003895 230.1655 176.1000 1.00271156 66377